User: anonymous   Login
Location: Ostrava
(49.8330°N, 18.2830°E)
Time: 08:18:34
(UTC+01:00)
Language:

Iridium 7 - Orbit

View from above orbital plane
View from above orbital plane
View from above satellite
View from above satellite

Ground track
Ground track

The orbit data is extracted from the following two-line orbital elements,

1 24793U 97020B   14332.50325354  .00000242  00000-0  79424-4 0   723
2 24793 086.3956 348.3705 0002201 107.6955 054.9322 14.34217448919655
Epoch (UTC): 28 November 2014 12:04:41
Eccentricity: 0.0002201
inclination: 86.3956°
perigee height: 776 km
apogee height: 779 km
right ascension of ascending node: 348.3705°
argument of perigee: 107.6955°
revolutions per day: 14.34217448
mean anomaly at epoch: 54.9322°
orbit number at epoch: 91965

The dashed part of the orbit path shows where the satellite is in the earth's shadow,  

DLR